Regional Weather Roundup
Issued by NWS Wakefield, VA

Home | Current Version | Previous Version | Graphics & Text | Print | Product List | Glossary On
Versions: 1 2 3 4 5 6 7 8 9 10 11 12 13 14 15 16 17 18 19 20 21 22 23 24 25 26 27 28
000
ASUS41 KAKQ 151515
RWRAKQ

REGIONAL WEATHER ROUNDUP
NATIONAL WEATHER SERVICE WAKEFIELD VA
1000 AM EST SUN JAN 15 2017

Note: "fair" indicates few or no clouds below 12,000 feet with no
significant weather and/or obstructions to visibility. * = Denotes
station may not report precipitation (e.g., rain,snow,etc.),
thunder or fog.

VAZ042-051-052>054-056-151600-
NORTHERN VIRGINIA

CITY           SKY/WX    TMP DP  RH WIND       PRES   REMARKS
WASH NATIONAL  PTSUNNY   43  32  65 N7        30.44R
DULLES         PTSUNNY   40  31  70 N9        30.43R
FORT BELVOIR   SUNNY     42  31  66 N7        30.43S
QUANTICO       PTSUNNY   40  37  89 E8        30.45R
FREDERICKSBRG* CLOUDY    39  39  98 N8        30.43R
STAFFORD*      CLOUDY    37  36  95 CALM      30.47S
WARRENTON      CLOUDY    41  35  79 N7        30.42R
CULPEPER*      CLOUDY    40  38  93 CALM      30.43S
MANASSAS*      NOT AVBL
LEESBURG*      SUNNY     41  36  81 MISG      30.44R
WINCHESTER     PTSUNNY   36  32  87 NE3       30.41S
FRONT ROYAL*   NOT AVBL
LURAY*         CLOUDY    37  37 100 N3        30.40R
$$

VAZ048-049-060>072-079>083-151600-
CENTRAL AND SOUTH CENTRAL VIRGINIA

CITY           SKY/WX    TMP DP  RH WIND       PRES   REMARKS
RICHMOND       CLOUDY    41  36  82 N10       30.41R
CHESTERFIELD*  CLOUDY    41  23  48 NE7       30.43R
PETERSBURG*    CLOUDY    41  37  87 N9        30.43R
HANOVER        CLOUDY    40  34  79 NE9       30.43R
TAPPAHANNOCK*  CLOUDY    39  37  92 N7        30.44R
QUINTON*       CLOUDY    40  36  86 N8        30.41R
CHARLOTTSVILLE CLOUDY    41  37  86 E7        30.40R
GORDONSVILLE*  CLOUDY    38  37  96 CALM      30.41R FOG
ORANGE*          N/A     37  37 100 CALM      30.43R
LOUISA*        CLOUDY    43  39  87 NE7       30.40S
BUMPASS*       CLOUDY    38  37  93 CALM      30.41R
FARMVILLE*     CLOUDY    41  40  97 NE6       30.40R
CREWE*         CLOUDY    41  41 100 NE6       30.41R
FORT PICKETT*  CLOUDY    42  38  86 NE9       30.40R
CHASE CITY*    CLOUDY    44  40  85 NE7       30.38S
CLARKSVILLE*   CLOUDY    45  39  81 E7        30.38R
SOUTH HILL*    CLOUDY    44  39  83 NE3       30.45R
LAWRENCEVILLE* CLOUDY    44  38  80 NE7       30.39R
EMPORIA*       CLOUDY    45  37  76 NE13      30.41S
$$

VAZ088>098-151600-
SOUTHEAST VIRGINIA

CITY           SKY/WX    TMP DP  RH WIND       PRES   REMARKS
NORFOLK        CLOUDY    41  37  86 N17       30.39R
VIRGINIA BEACH CLOUDY    41  36  82 N12       30.39R
NORFOLK NAVAL  CLOUDY    43  38  82 NE16G23   30.40S
WEST POINT*    CLOUDY    40  36  84 N10G16    30.44R
SALUDA*        CLOUDY    39  35  85 N10       30.42S
NEWPORT NEWS   CLOUDY    42  38  85 NE7       30.40R
LANGLEY AFB    CLOUDY    41  38  91 NE10      30.39S
FORT EUSTIS    CLOUDY    42  36  78 N7        30.38R
WILLIAMSBURG*  CLOUDY    43  41  93 NE8       30.41R
HR EXEC AP*    CLOUDY    45  37  76 NE8G16    30.38S
FRANKLIN*      PTSUNNY   45  36  71 N12       30.41R
US460-WAKEFLD  CLOUDY    43  37  79 N5        30.41R
$$

VAZ020-022-025-037-045-151600-
WEST CENTRAL AND SOUTHWEST VIRGINIA

CITY           SKY/WX    TMP DP  RH WIND       PRES   REMARKS
STAUNTON*      CLOUDY    40  37  89 CALM      30.40R FOG
WAYNESBORO*    CLOUDY    41  38  90 CALM      30.36S
HOT SPRINGS VA FOG       32  32 100 W8        30.30R VSB<1/4
LYNCHBURG      CLOUDY    41  38  89 E6        30.39R
DANVILLE       CLOUDY    47  41  80 NE9       30.37R
SOUTH BOSTON*  PTSUNNY   47  40  76 E7        30.38S
MARTINSVILLE   CLOUDY    51  45  80 CALM      30.37R
ROANOKE        CLOUDY    53  44  71 NE6       30.36S
BLACKSBURG     CLOUDY    49  45  85 NW5       30.37S
DUBLIN*        CLOUDY    49  47  91 E3        30.35R
MARION*        CLOUDY    52  49  92 W5        30.36S
HILLSVILLE*    CLOUDY    51  49  95 CALM      30.33R
RICHLANDS*     CLOUDY   N/A N/A N/A CALM      30.34R
WISE*          FOG       46  46 100 CALM      30.35S VSB 1
ABINGDON*      CLOUDY    54  52  95 CALM      30.34R
$$

MDZ021>025-VAZ099-100-151600-
SOUTHERN MARYLAND AND THE DELMARVA PENINSULA

CITY           SKY/WX    TMP DP  RH WIND       PRES   REMARKS
PATUXENT RIVER CLOUDY    39  31  72 N9        30.43R
BAY BRIDGE APT MOSUNNY   37  30  75 N8        30.45R
LEONARDTOWN    SUNNY     37  32  81 N3        30.45R
DOVER          CLOUDY    35  33  93 NW13      30.41R
GEORGETOWN     MOSUNNY   37  29  72 N7        30.42R
EASTON         SUNNY     37  28  70 N9        30.47R
CAMBRIDGE      SUNNY     36  30  80 N10       30.43R
SALISBURY      MOSUNNY   37  32  82 NW13      30.42R
OCEAN CITY     MOSUNNY   37  33  85 NW9       30.41R
WALLOPS ISLAND CLOUDY    37  34  89 NW9       30.41R
ACCOMACK*      CLOUDY    38  35  89 N10       30.41R
$$

NCZ012>017-030>032-151600-
NORTH CENTRAL AND EASTERN NORTH CAROLINA

CITY           SKY/WX    TMP DP  RH WIND       PRES   REMARKS
ROANOKE RAPIDS CLOUDY    45  39  81 NE9G18    30.39R
RALEIGH        CLOUDY    50  41  71 NE8       30.36R
ELIZABETH CITY CLOUDY    45  40  82 N13       30.39R
AHOSKIE*         N/A     46  39  77 N12       30.40R
EDENTON*       CLOUDY    50  44  79 NE9       30.38R
CURRITUCK*     CLOUDY    44  40  85 N10       30.39R
KILL DEVIL HLS NOT AVBL
MANTEO         CLOUDY    44  42  92 NE12G18   30.39R
CAPE HATTERAS  CLOUDY    49  43  80 VRB5      30.36R HAZE
TARBORO*       NOT AVBL
GOLDSBORO      CLOUDY    50  46  86 NE8       30.33S
WASHINGTON     CLOUDY    51  43  74 NE7       30.36S
GREENVILLE     PTSUNNY   50  43  76 NE8       30.37R
NEW BERN       CLOUDY    51  44  77 NE3       30.36R
WILMINGTON     CLOUDY    54  50  86 N7        30.34R
$$

VAZ048-151600-
ELSEWHERE

CITY           SKY/WX    TMP DP  RH WIND       PRES   REMARKS
HARRISBURG PA  MOSUNNY   35  26  69 N13       30.43R
BALTIMORE      PTSUNNY   37  33  85 N3        30.44R
ANNAPOLIS      MOSUNNY   40  30  67 NW7       30.44R
ANDREWS AFB    SUNNY     40  31  70 N12       30.42R
PHILADELPHIA   MOSUNNY   34  24  67 N13       30.43R WCI  25
GREENSBORO     CLOUDY    52  46  80 E10       30.34R
ROCKY MOUNT    PTSUNNY   49  43  80 NE10      30.37R
$$

VAZ100-151600-
MARINE

STATION/POSITION TIME  TEMP    WIND        PRES    WAVE   SWELL
                       AIR SEA DIR/SP/G            HT/PER HT/PER
                 (UTC) (F)     (DEG/KT/KT) (MB)    (FT/S) (FT/S)
CAPE MAY NJ      1448   36 40  350/  5/ 10 1029.1R
LEWES DE         1436   36 41  360/ 16/ 18 1029.6R
OCEAN-CITY-INLET 1436   36 42  350/  8/ 10 1029.8R
WACHAPREAGUE VA  1448   37 43  350/  7/ 11 1029.6R
THOMAS POINT MD  1500   37 38  360/ 11/ 13   N/A
GOOSES REEF MD   1500   38     360/ 10/ 14 1031.6    1/ 2
COVE POINT MD    1448   36      20/ 11/ 13 1031.1R
SOLOMONS ISLAND  1442   38 40  360/  7/ 12   N/A
BISHOPS HEAD MD  1448   38 39   10/  8/ 12 1030.5R
PINEY POINT MD   1448           20/  9/ 11   N/A
POTOMAC MD       1500   38 40   10/ 12/ 16 1029.7    0
CAMBRIDGE MD     1448   36 38  340/ 10/ 13 1030.0R
LEWISETTA VA     1448   38 42   20/  9/ 12 1030.2R
RAPPAHANNOCK LGT 1448          360/ 19/ 22 1030.3R
STINGRAY PT      1450   38      20/ 14/ 16 1030.2R
YORK RVR RNG VA  1448   39      30/ 15/ 17 1028.7R
YORKTOWN VA      1448   40 41   30/ 12/ 15 1029.3R
JAMESTOWN VA     1500   41 43  360/  8/ 12   N/A     0
DOMINION TERM VA 1448   41      40/  8/ 14 1029.1R
KIPTOPEKE VA     1442      42   10/ 11/ 19   N/A
CHES BAY BRIDGE  1448   39 42   10/ 18/ 20 1029.3R
CAPE HENRY VA    1442   39     350/ 20/ 22   N/A
WILLOUBY STN VA  1448   40      30/ 12/ 14 1030.0R
S CRANEY ISL VA  1448   41      30/ 13/ 17 1029.0R
CAPE HENRY BUOY  1442      48                N/A     3/12   2/12
OFFSHORE WE BUOY 1451      50                N/A     4/ 4   2/11
64NM E OF VA BCH 1450   46 61  360/ 17/ 21 1027.1R   5/ 5   2/11
DUCK PIER NC     1448   43 46  350/ 13/ 15 1028.1R
44100 DUCK FRF   1435      46                N/A     3/11   2/11
44056 DUCK FRF   1430      47                N/A     3/11   2/11
OREGON INLET NC  1442   46 50  350/ 11/ 14 1028.2R
HATTERAS NC      1442   46 54  360/  7/  8 1027.7R
DIAMOND SHLS NC  1450   53 75  350/ 14/ 17 1027.4R   3/10   3/10
CAPE LOOKOUT NC  1400   50     330/  3/  4 1027.2R
$$




USA.gov is the U.S. government's official web portal to all federal, state and local government web resources and services.